Back to catalog

DELTA 1 DEB

AliveSSO
NORAD 13570·DEBRIS·🇺🇸 United States

Launched Mar 5, 1978 from Vandenberg Space Force Base

Loading…

Next Passes (next 24 hours)

TLE

FreshSource: Space-Track

Epoch: Sep 14, 2026, 08:53 UTC

1 13570U 78026FH  26257.37060666  .00000648  00000-0  20413-3 0  9996
2 13570  98.5233 293.4995 0042301 289.8578  82.3226 14.43194913362706

Track DELTA 1 DEB in real time with AllMySat

Download on the App Store